Location: Allen Generating Plant
(35.0740°N, 90.1490°W)
Time: 05:38:15
(UTC+00:00)

Hubble Space Telescope - Visible Passes

Search period start: 12 October 2024 00:00
Search period end: 22 October 2024 00:00
Orbit: 503 x 507 km, 28.5° (Epoch: 11 October)

Date Brightness Start Highest point End Pass type
(mag) Time Alt. Az. Time Alt. Az. Time Alt. Az.
15 Oct 3.1 01:13:07 10° SSW 01:14:02 13° S 01:14:02 13° S visible
16 Oct 2.6 00:51:15 10° SSW 00:53:44 17° SSE 00:53:44 17° SSE visible
17 Oct 2.5 00:29:22 10° SSW 00:32:04 18° SSE 00:33:20 16° SE visible
18 Oct 2.5 00:07:27 10° SSW 00:10:16 19° SSE 00:12:51 11° ESE visible
18 Oct 3.4 01:46:44 10° WSW 01:47:29 14° SW 01:47:29 14° SW visible
18 Oct 2.5 23:45:30 10° SW 23:48:26 20° SSE 23:51:23 10° ESE visible
19 Oct 2.6 01:24:54 10° WSW 01:26:55 23° SW 01:26:55 23° SW visible
20 Oct 1.9 01:03:01 10° WSW 01:06:17 30° S 01:06:17 30° S visible
21 Oct 1.8 00:41:05 10° WSW 00:44:34 31° S 00:45:35 27° SSE visible
